Wind_Speed
31 31 31 32 30 32 34 33 33 36 38 38 37 36 36 34 33 34 36 38 38 39 39 37 34 34 36 38 39 39 39 39 39 40 40 41 41 42 42 42 42 41 41 40 39 38 37 36 35 34 33 32 31 30 30 29 29 31 34 37 38 37 35 34 34 34 34 34 34
32 33 34 35 33 33 35 34 33 34 35 35 34 33 32 32 32 34 36 37 38 38 37 35 34 35 36 38 38 39 39 39 40 41 41 42 42 42 42 42 42 41 41 40 39 39 38 37 36 35 34 34 33 32 31 31 32 33 36 38 38 37 36 36 35 35 35 34 34
31 33 34 37 34 34 35 34 32 31 31 31 31 31 31 31 31 32 34 35 36 36 35 34 34 35 37 37 38 38 39 40 41 41 42 42 42 43 43 43 42 42 41 40 40 39 38 37 36 36 35 35 34 33 33 34 34 36 38 38 38 38 37 37 37 36 36 36 35
28 29 32 35 36 35 35 33 30 29 29 29 29 29 30 30 30 30 30 31 32 32 32 32 33 34 35 36 37 38 39 40 41 42 42 43 43 43 43 43 42 42 41 41 40 39 39 38 37 37 36 36 36 35 35 35 36 37 38 38 38 38 38 39 38 38 37 37 37
25 26 28 32 35 35 33 30 28 28 28 28 29 29 29 30 29 27 26 27 27 29 30 30 31 31 32 33 36 37 39 40 41 42 42 43 43 43 43 43 42 42 41 41 40 40 39 38 38 37 37 37 37 37 36 36 37 38 38 38 39 39 39 40 40 39 39 38 38
24 24 26 29 34 34 31 28 27 27 28 28 29 29 30 29 27 26 25 24 25 26 27 28 28 28 28 30 33 36 38 39 40 41 42 43 43 43 43 43 42 42 41 41 41 40 39 39 38 38 38 38 38 38 38 38 38 38 39 39 40 40 40 41 41 40 40 40 39
25 24 24 27 33 34 30 27 27 27 28 28 29 29 29 28 26 25 24 23 23 24 25 26 27 26 26 27 30 33 36 39 40 41 42 43 43 43 43 43 42 42 41 41 41 41 40 40 39 39 39 39 39 39 39 39 39 39 40 40 41 41 41 41 41 41 41 41 41
25 24 23 25 31 33 31 28 27 27 28 28 29 29 29 28 26 25 24 23 23 23 24 25 25 26 26 26 28 30 34 37 40 42 43 43 44 44 43 43 42 42 42 42 42 41 41 40 40 40 40 40 40 41 41 41 40 40 41 41 41 42 42 42 42 42 43 43 42
25 25 24 24 28 30 30 28 28 28 28 28 29 29 29 28 26 25 24 24 25 24 24 24 25 26 27 27 28 29 32 35 38 41 42 43 44 44 43 43 43 43 43 43 42 42 42 41 41 41 41 41 41 42 42 42 42 42 41 41 42 42 43 43 43 43 44 44 43
25 26 25 25 27 29 30 29 29 28 28 29 29 29 29 28 27 26 25 26 26 26 25 25 25 25 27 28 29 30 31 34 36 38 40 42 43 43 43 43 43 43 43 43 43 43 42 42 43 43 43 43 43 43 43 43 43 43 42 42 43 43 43 44 44 44 44 44 44
25 26 27 27 27 29 30 30 30 29 29 29 29 29 30 30 30 30 29 28 28 28 27 25 25 25 26 27 29 30 31 33 34 36 37 39 41 41 42 42 43 43 43 43 43 43 43 43 44 44 44 44 44 44 44 44 44 44 43 43 43 43 43 43 44 44 44 45 45
26 26 27 28 28 29 30 31 30 30 29 30 30 30 31 32 34 34 33 31 30 30 29 27 26 25 25 26 27 29 30 32 33 34 35 37 38 39 39 40 41 42 42 42 42 42 43 44 44 44 43 43 43 44 44 44 44 44 44 44 43 43 42 42 43 43 43 43 44
26 27 28 28 29 30 30 31 30 30 30 31 31 31 31 32 36 37 35 33 33 32 31 29 27 26 26 26 27 28 29 30 31 32 33 34 35 36 36 37 38 39 40 40 41 41 42 42 42 42 41 42 42 43 43 43 43 43 43 43 43 42 42 42 41 41 41 42 42
27 28 28 29 30 30 30 31 31 31 31 32 32 32 31 32 34 36 36 36 36 34 32 30 29 28 27 27 27 28 29 30 30 31 32 32 33 34 34 34 35 36 37 38 39 40 41 41 40 40 39 39 40 40 41 41 42 42 41 41 41 41 40 40 39 39 39 40 41
29 29 29 30 30 31 32 32 32 31 32 33 33 33 32 31 32 34 36 37 38 36 34 32 30 30 29 29 29 29 29 29 30 30 31 31 31 32 32 33 33 34 35 36 37 38 39 39 38 38 38 38 38 38 39 39 39 39 39 39 38 38 37 37 37 37 38 39 40
32 32 32 32 32 33 33 34 33 33 33 33 34 33 33 32 31 33 36 38 39 38 36 34 33 32 31 31 30 30 30 30 30 31 31 31 32 32 33 33 34 34 35 36 36 37 38 38 38 37 37 37 37 37 37 37 37 38 38 37 36 36 35 35 35 36 36 37 37
37 36 36 36 36 36 36 36 36 35 35 35 35 35 34 33 32 33 36 39 40 39 38 37 36 34 33 33 32 32 32 32 32 32 33 33 34 34 34 35 35 36 36 36 37 37 37 37 37 37 36 36 36 36 36 36 36 37 37 37 36 35 34 34 34 34 34 34 33
41 41 41 40 39 39 39 39 38 38 37 37 37 36 36 35 34 35 37 39 40 40 40 39 38 37 36 35 34 34 34 34 34 34 35 35 35 36 36 36 35 35 36 36 36 37 37 36 36 36 36 36 36 36 36 36 36 37 38 37 36 35 34 33 32 32 31 31 31
43 43 43 43 43 43 43 42 41 40 40 39 38 37 37 38 38 38 39 40 41 41 40 39 38 38 37 37 36 36 36 36 36 36 36 36 36 36 36 35 35 35 35 35 35 35 35 34 34 34 34 35 35 35 35 35 36 37 38 37 35 34 33 32 31 30 31 31 32
41 42 43 43 43 43 43 43 43 42 42 40 39 39 40 41 42 42 41 42 42 41 40 40 39 39 38 38 38 37 37 37 38 37 37 36 36 35 35 35 34 33 33 33 33 33 33 32 31 32 32 33 33 34 34 35 36 36 36 35 33 32 31 30 30 30 31 32 33
40 41 41 41 42 42 42 42 42 42 42 42 41 41 42 43 44 44 43 43 42 41 40 39 39 39 39 38 38 38 38 38 38 38 38 37 36 35 35 34 33 32 31 31 31 31 30 30 29 30 30 31 31 32 32 33 33 33 33 32 32 31 30 31 32 33 34 35 35
40 40 40 40 40 40 40 40 40 40 41 41 43 43 43 44 44 44 44 43 42 41 39 38 37 37 38 38 38 38 38 38 38 38 37 36 35 34 33 33 32 31 31 30 30 29 28 27 27 27 27 28 29 29 30 30 30 30 30 30 30 31 32 34 36 38 38 38 38
42 41 40 40 40 40 40 39 39 40 41 42 43 44 45 44 44 44 43 42 41 40 38 36 35 35 36 36 37 37 37 37 37 37 37 36 34 33 32 32 32 32 31 30 28 27 25 23 22 23 24 26 27 28 29 29 29 29 30 31 32 34 36 38 39 39 38 38 39
43 42 41 40 41 41 41 41 41 41 42 44 45 46 46 46 45 44 43 42 41 40 38 36 34 34 34 35 36 36 36 36 37 37 37 37 36 34 34 33 33 32 30 28 27 25 24 22 22 25 28 31 31 30 29 29 31 33 35 37 38 39 40 39 37 36 36 37 38
43 43 42 41 41 41 41 42 42 43 44 46 47 47 47 47 47 46 44 43 42 41 39 38 36 35 35 36 36 37 37 37 37 38 38 38 37 36 35 34 33 32 31 30 29 28 28 29 31 34 37 40 42 39 35 34 34 35 36 37 38 37 37 36 34 34 35 36 37
42 43 43 42 41 40 40 41 43 44 45 47 47 47 47 47 47 46 45 44 44 43 41 40 39 38 38 38 38 38 38 38 38 38 38 38 37 36 34 33 32 32 32 32 33 33 35 36 37 39 41 45 49 49 47 44 40 38 35 33 32 32 33 33 33 34 34 35 36
40 42 43 43 42 40 40 40 41 42 44 45 45 45 45 45 45 44 44 44 44 44 43 42 41 41 40 40 40 40 40 40 39 38 38 38 38 36 35 34 34 34 34 35 35 35 36 36 36 37 39 42 46 48 48 45 43 40 38 37 35 35 34 34 33 33 33 34 34
37 40 42 43 43 42 41 40 39 40 41 41 42 42 42 42 41 41 42 43 43 43 43 42 42 42 41 41 41 42 42 42 41 40 40 40 39 38 37 36 36 35 35 35 35 35 35 34 35 36 37 39 41 42 42 41 40 40 39 39 39 37 36 34 32 32 32 33 33
35 38 40 42 43 43 43 41 39 39 39 39 39 39 38 38 38 38 39 40 41 41 41 41 41 40 40 40 42 43 44 44 44 43 42 42 41 40 39 38 37 36 35 34 34 33 33 33 33 34 35 36 37 38 37 37 36 37 38 38 38 36 33 31 31 31 32 32 32
33 35 38 40 41 42 43 42 41 39 38 36 36 35 35 35 35 36 37 37 38 39 40 40 40 39 40 41 43 44 44 45 45 45 44 44 43 42 41 40 39 37 36 35 34 33 32 31 31 31 32 33 34 34 34 33 33 34 35 35 34 32 30 29 29 30 30 30 30
32 34 36 38 40 41 41 41 41 39 37 34 33 33 33 33 33 34 35 35 35 36 37 38 38 39 40 42 43 44 45 45 46 46 46 46 45 45 44 43 41 40 39 37 35 33 31 30 29 29 29 30 31 31 31 31 31 31 31 31 30 29 28 28 28 29 29 29 28
32 32 34 36 39 40 40 40 40 39 37 34 32 31 32 32 32 33 33 33 33 33 34 35 37 38 39 40 41 42 43 44 45 45 46 46 46 46 45 44 43 42 40 38 35 32 30 29 28 28 28 29 30 31 31 29 28 27 27 27 27 26 27 28 29 29 29 28 28
31 31 32 33 36 38 39 39 38 38 37 36 34 32 31 31 31 31 31 31 31 31 32 33 35 36 37 37 39 40 41 42 43 43 44 44 44 44 44 43 43 42 40 38 35 32 30 28 28 28 29 30 31 31 29 27 25 24 24 24 25 25 27 28 30 30 29 28 28
30 30 30 31 32 33 35 36 36 36 36 36 35 34 32 31 30 29 29 29 29 30 30 31 33 34 34 34 35 37 38 40 41 41 41 42 42 42 42 41 41 40 39 37 35 32 30 29 29 29 30 30 30 28 26 24 23 22 23 23 25 26 28 30 31 31 30 29 29
28 29 29 29 29 29 30 32 33 33 34 34 35 35 34 32 31 29 28 28 27 27 28 29 30 31 31 31 32 33 35 37 39 39 40 40 40 40 40 40 40 39 38 36 34 32 30 29 29 29 28 27 26 25 24 23 22 23 23 24 26 28 30 32 32 32 31 31 31
27 28 28 28 28 27 27 28 29 30 31 31 32 33 33 33 32 31 29 27 26 26 26 26 27 27 28 28 29 30 32 35 37 38 39 39 39 39 39 38 39 39 38 36 33 31 30 29 27 26 24 23 23 23 23 23 23 24 25 27 29 30 31 31 31 31 31 32 32
26 26 27 27 27 26 25 25 26 28 29 29 30 30 30 31 31 30 29 27 26 26 25 25 25 26 26 26 26 27 29 30 33 35 37 38 38 38 37 37 38 38 37 34 32 30 28 27 24 22 20 21 22 22 23 24 24 26 27 29 29 29 29 30 30 31 31 32 32
24 24 25 26 26 25 24 24 25 27 28 29 28 28 27 27 27 27 27 26 26 25 25 25 25 25 24 24 25 25 26 27 31 34 35 36 36 36 35 35 36 35 33 31 29 27 26 23 20 18 18 19 20 21 22 24 25 27 28 28 28 28 27 28 29 30 30 31 31
21 22 22 23 24 24 24 23 25 27 28 28 27 26 25 24 24 24 24 24 24 24 24 24 23 23 23 23 24 25 27 29 32 34 34 34 33 33 32 31 30 29 27 26 25 23 21 19 17 17 17 17 18 20 21 23 25 26 27 26 26 26 26 27 28 29 29 30 30
21 21 22 23 24 25 25 24 25 26 27 27 26 25 23 22 21 21 21 21 22 22 22 22 21 21 22 23 24 26 29 32 33 33 33 31 30 29 26 24 22 21 21 21 21 20 18 17 17 16 16 16 17 18 20 22 24 25 26 26 26 26 26 27 27 28 28 28 28
23 23 24 25 26 26 26 26 25 25 25 25 23 21 20 18 18 17 17 18 18 19 19 18 18 20 23 25 26 28 30 31 31 31 29 26 23 21 18 17 17 18 19 19 18 17 16 16 16 16 16 16 16 17 19 22 24 25 26 26 26 26 27 27 28 28 28 28 28
Wind_Direction
184 184 185 185 186 187 188 188 189 190 191 192 192 193 192 193 194 197 202 209 216 223 228 230 225 218 212 211 211 211 212 214 216 218 219 219 220 221 222 223 225 226 227 228 229 230 231 232 233 234 235 235 235 235 234 233 235 240 244 247 249 251 252 253 253 253 253 254 254
190 190 189 187 186 187 188 187 188 188 189 190 191 190 189 189 192 197 204 211 217 223 226 225 219 213 210 209 210 210 212 213 216 217 219 220 221 222 223 225 226 227 229 230 231 232 232 233 234 235 236 237 237 236 236 234 235 238 242 245 248 250 252 252 252 252 253 254 254
194 194 194 192 190 189 189 187 187 187 187 187 187 187 186 187 191 198 206 212 218 222 222 219 214 211 209 209 209 211 212 214 216 218 219 221 222 223 225 226 228 229 230 231 232 233 234 235 235 236 237 238 238 238 237 237 237 238 241 244 247 250 251 252 252 253 253 254 254
195 196 196 195 193 191 189 187 186 185 185 185 184 184 185 187 193 200 206 212 216 218 217 214 212 210 210 210 211 213 214 216 217 219 220 221 223 224 226 227 229 230 232 233 234 235 235 236 237 238 238 239 239 239 239 240 240 241 243 245 247 249 251 252 253 253 254 254 255
197 196 196 196 194 191 188 186 185 185 184 184 183 184 186 190 196 200 203 207 210 212 212 212 211 211 212 214 216 217 218 219 219 220 222 223 224 225 227 228 230 232 233 234 235 236 237 237 238 239 240 241 241 242 242 242 243 244 246 247 248 250 251 252 253 254 255 255 256
198 197 196 196 194 191 188 187 187 186 184 183 184 185 189 193 197 199 200 201 204 207 210 212 212 213 215 218 220 222 222 222 222 223 224 225 226 227 228 230 231 233 234 236 237 238 238 239 239 240 241 242 243 244 245 245 246 247 248 249 250 251 252 253 254 255 256 257 257
198 198 197 197 194 191 189 189 188 187 185 185 187 189 192 195 198 199 199 200 201 205 209 213 215 216 217 219 223 225 226 226 226 226 227 227 228 229 230 231 233 234 236 237 239 239 240 240 241 241 242 244 245 246 247 247 248 248 249 250 251 252 253 254 255 256 257 258 258
197 197 197 197 193 191 190 190 190 188 188 189 191 193 195 197 199 200 200 201 203 206 211 216 220 222 221 221 223 226 228 229 229 229 229 229 230 230 231 233 234 236 237 239 240 241 242 242 242 243 243 245 246 248 249 250 250 250 251 252 253 254 255 255 256 257 258 259 260
196 196 197 197 193 191 191 192 192 191 192 193 195 196 198 200 201 202 204 205 208 211 216 222 227 229 227 224 223 224 227 229 230 230 231 231 231 232 233 234 236 237 238 240 241 243 243 244 244 245 245 246 247 249 250 252 252 253 253 254 254 255 256 257 258 259 260 261 261
195 196 197 197 194 192 192 194 194 195 196 197 199 200 202 204 205 206 207 210 214 217 222 227 232 234 232 228 225 224 226 229 230 231 232 232 233 233 234 235 236 238 239 241 242 243 245 245 246 247 247 248 249 251 252 253 254 254 255 255 255 256 257 258 259 260 261 262 262
196 196 196 196 195 194 193 195 196 198 200 201 202 204 206 208 209 209 211 213 218 222 227 230 233 235 234 231 228 226 227 229 231 232 233 234 234 234 235 236 237 238 240 241 243 244 245 246 247 248 249 249 251 252 253 254 255 256 256 256 256 256 257 258 259 260 261 262 263
197 196 196 195 195 195 196 197 199 201 203 204 205 206 208 210 211 211 213 216 221 225 229 232 234 235 234 233 230 229 229 230 232 233 234 235 235 235 235 236 237 238 240 241 243 244 245 246 248 249 250 251 251 252 253 254 255 256 256 257 257 257 257 258 259 260 261 262 262
198 197 196 196 196 196 198 199 201 203 205 206 207 208 209 211 212 213 216 219 223 227 230 234 235 235 234 233 232 230 230 231 232 232 233 233 234 235 235 235 236 238 239 241 242 243 245 247 249 250 251 252 252 253 254 255 256 256 257 257 258 257 258 258 259 259 260 261 261
198 198 197 197 197 198 200 201 203 205 206 207 208 209 210 212 213 216 218 221 224 227 230 233 235 235 235 233 233 232 231 231 232 232 232 232 233 234 235 235 236 237 239 240 241 243 246 248 250 251 252 252 253 254 255 256 256 257 257 258 258 259 259 259 259 259 259 259 260
200 200 199 199 200 201 202 203 204 205 206 208 208 209 211 212 215 217 220 223 225 228 231 233 235 236 236 235 235 234 234 234 235 235 234 234 234 235 236 237 238 239 239 240 241 243 245 248 250 251 252 253 253 254 255 256 257 258 258 259 260 260 261 260 259 258 258 259 261
201 201 201 201 201 202 203 204 205 206 207 208 209 210 211 213 215 218 221 224 227 229 232 234 236 237 238 238 237 236 237 238 239 239 240 239 239 240 240 241 242 242 242 242 242 244 246 248 249 251 252 253 254 254 254 255 257 258 260 260 261 262 262 262 261 260 261 262 264
201 200 200 201 202 203 203 204 205 206 207 208 209 211 212 214 215 218 222 226 229 231 234 236 238 238 239 239 239 238 239 239 240 241 242 243 243 244 244 244 244 245 245 244 244 245 247 249 250 252 253 255 256 256 255 255 257 259 261 262 263 264 265 265 265 265 266 267 268
201 201 200 201 202 203 204 204 205 206 208 209 210 211 213 215 216 219 223 228 231 234 236 239 240 240 240 240 240 240 239 240 240 241 242 243 245 245 245 245 244 244 245 245 245 246 248 250 253 255 256 256 257 257 256 255 256 258 261 264 266 267 268 269 269 270 271 271 272
203 203 202 202 203 204 205 206 206 208 209 210 211 212 215 217 219 221 225 229 234 237 239 240 241 241 241 240 240 240 241 241 242 242 243 244 244 245 245 245 244 243 243 244 245 247 249 252 254 256 257 257 258 258 257 256 256 259 263 266 269 270 271 272 272 273 274 274 275
206 206 206 205 206 206 207 208 209 210 211 212 212 214 217 220 222 225 228 232 236 239 241 242 243 243 243 243 242 242 243 244 245 246 245 245 244 244 245 245 243 241 240 241 244 248 251 252 253 255 257 259 260 261 260 260 261 263 266 270 271 272 273 273 273 274 274 275 276
209 209 209 209 209 209 210 211 212 212 213 214 215 216 218 221 224 227 231 234 238 242 244 246 247 247 248 248 247 246 246 247 247 248 247 246 244 243 243 243 241 238 238 240 245 249 251 252 253 254 257 261 264 266 266 266 267 269 271 273 273 273 272 273 274 275 276 276 277
211 211 211 211 211 212 213 213 214 215 216 217 217 218 220 222 225 228 231 235 238 241 245 248 250 251 251 250 249 248 247 247 247 247 247 245 243 241 240 238 237 237 239 242 246 249 251 252 253 256 260 265 269 271 271 271 271 272 273 273 272 272 273 274 276 277 278 279 280
212 212 212 213 214 214 215 216 217 217 218 219 220 221 222 224 226 228 231 233 235 237 241 245 248 250 251 251 249 248 246 245 245 246 246 244 240 237 235 235 237 240 244 246 246 246 247 249 255 262 270 275 277 277 276 275 275 275 275 274 274 275 276 278 278 279 280 281 281
214 214 214 215 215 216 217 218 219 220 221 222 223 224 225 227 229 230 232 233 234 236 237 239 241 244 247 249 249 247 245 243 243 244 244 244 241 239 238 240 244 248 249 246 242 240 243 252 264 274 280 283 283 281 279 280 281 281 279 277 277 277 278 278 278 279 280 281 282
217 217 217 217 218 218 219 220 221 223 224 225 226 227 229 230 232 233 235 236 237 238 238 239 240 241 243 245 248 248 248 246 244 244 244 245 245 245 246 248 252 253 251 245 241 242 250 259 268 273 275 276 278 279 280 283 286 286 284 280 278 277 276 275 276 278 280 282 282
221 220 220 220 220 220 221 222 224 225 227 228 229 230 231 232 234 235 236 238 240 241 242 242 243 244 245 246 247 249 249 249 248 248 249 249 250 251 252 254 256 255 252 247 245 248 253 258 262 264 265 266 268 270 274 278 284 288 288 286 283 280 277 275 276 278 281 283 283
224 225 224 223 222 222 222 224 226 227 229 230 231 232 233 234 234 235 237 238 240 242 243 244 245 246 247 248 249 250 251 251 251 251 252 253 254 254 255 256 256 255 253 250 249 250 253 255 256 257 257 257 259 262 267 273 279 284 286 286 285 283 281 279 279 280 282 284 284
226 228 229 228 227 226 225 226 226 228 230 231 232 233 234 234 234 235 236 238 240 241 242 243 245 246 247 248 249 251 252 253 253 253 254 255 255 255 255 255 254 254 253 252 252 252 253 255 256 257 256 254 254 256 260 267 272 275 277 278 278 278 278 279 280 281 282 283 283
225 229 232 233 233 232 230 228 228 229 230 232 233 234 234 234 234 235 236 237 238 239 240 241 243 244 245 245 247 250 252 253 255 256 256 257 257 257 257 256 255 255 255 254 254 254 255 256 257 257 256 254 252 253 257 262 266 268 269 269 270 270 271 273 275 278 279 280 279
222 226 232 235 237 237 235 233 231 230 230 231 232 233 233 233 234 235 236 237 237 238 239 240 240 241 243 245 247 249 251 253 254 256 257 258 258 259 259 258 258 258 257 257 255 255 255 255 255 255 254 252 252 256 262 268 271 272 270 268 267 267 267 269 272 274 276 276 276
220 224 229 235 238 239 239 238 235 232 230 229 229 230 231 231 233 235 236 237 238 239 240 241 240 241 243 246 248 249 251 252 254 255 256 258 259 260 261 261 261 261 260 258 255 253 252 252 251 251 252 253 258 265 273 278 279 277 273 270 267 266 267 269 272 274 275 275 274
221 222 226 232 237 240 241 240 238 234 230 228 227 228 229 230 232 234 237 238 239 240 241 242 242 243 244 246 248 250 251 252 253 255 256 258 260 261 262 262 262 262 261 258 253 250 248 248 248 250 254 259 267 275 279 280 277 274 270 268 266 267 268 270 272 274 275 275 274
221 221 223 228 234 239 242 242 239 236 232 229 227 227 228 229 231 233 235 236 237 238 239 241 243 245 245 246 248 250 252 254 255 257 259 260 261 262 262 262 263 262 261 258 252 248 246 246 249 253 258 265 272 276 277 274 270 267 265 265 266 268 269 271 272 273 274 275 275
221 221 222 224 229 235 240 242 241 238 235 231 229 228 228 229 230 230 231 232 233 235 236 239 242 244 245 246 247 249 253 256 258 260 261 263 263 263 263 263 263 263 261 256 251 247 246 248 252 257 263 268 271 271 269 265 262 261 263 265 267 268 269 269 270 272 274 275 275
222 222 223 224 226 230 236 240 242 241 238 235 233 231 230 230 230 230 231 231 231 232 234 236 239 241 243 244 244 247 250 254 257 260 261 263 264 264 264 264 264 263 261 255 250 247 248 251 256 261 266 268 267 264 261 258 258 261 263 265 266 266 267 268 270 272 273 274 275
223 224 224 225 225 227 230 236 240 242 242 240 238 236 234 233 232 232 232 232 232 232 232 233 235 236 237 238 238 241 245 250 254 257 260 262 262 263 263 263 263 263 261 256 251 249 251 255 260 264 266 265 262 259 257 258 260 262 264 264 265 266 268 269 271 272 273 274 275
226 226 226 227 227 226 227 231 237 241 244 244 244 243 240 238 236 234 233 232 232 232 233 233 233 233 233 233 233 236 241 246 251 255 258 261 262 262 262 261 261 262 261 259 256 255 256 259 263 265 265 264 261 260 259 259 261 262 263 265 267 269 271 272 272 273 273 275 276
228 228 228 229 228 227 226 227 233 239 244 247 249 249 248 244 239 237 235 233 232 232 233 234 233 233 232 232 232 235 239 241 247 252 256 258 259 259 258 258 260 263 265 264 263 262 261 261 263 264 265 266 266 264 263 263 263 265 266 269 271 274 275 274 274 274 275 276 277
229 229 228 228 227 226 225 225 230 236 243 247 251 252 251 247 243 239 236 234 233 233 233 234 234 233 232 230 230 232 235 239 243 248 251 253 254 255 256 258 262 266 267 266 263 261 260 260 260 262 264 267 269 269 268 268 268 269 271 273 274 275 276 276 276 277 277 277 277
225 224 224 224 225 226 225 225 229 235 242 246 249 251 251 248 246 242 239 235 233 232 232 233 233 232 230 227 228 229 232 236 240 243 246 248 251 253 256 258 260 260 258 255 252 251 253 256 259 260 262 264 266 267 268 269 270 271 272 273 275 276 277 278 278 278 278 277 276
223 222 223 224 227 228 230 230 232 236 242 246 247 248 247 247 245 242 238 234 232 231 230 229 228 226 225 224 226 229 232 235 238 240 242 244 246 248 248 245 243 243 244 244 245 248 254 261 265 265 262 260 260 261 264 266 268 269 271 273 274 275 277 278 278 278 277 276 276
Height
1467 1468 1470 1471 1472 1474 1475 1476 1477 1478 1480 1482 1484 1486 1488 1491 1493 1495 1497 1499 1499 1500 1500 1501 1502 1504 1506 1507 1508 1510 1511 1513 1514 1515 1516 1518 1519 1520 1521 1522 1523 1524 1525 1526 1528 1529 1530 1531 1532 1532 1533 1533 1534 1535 1536 1536 1537 1538 1538 1538 1538 1538 1538 1538 1538 1539 1539 1539 1540
1466 1467 1468 1470 1471 1472 1473 1475 1476 1477 1479 1481 1483 1485 1487 1490 1492 1495 1496 1497 1498 1498 1499 1500 1501 1503 1505 1506 1507 1509 1510 1511 1512 1513 1515 1516 1517 1519 1520 1521 1522 1523 1524 1525 1526 1527 1528 1529 1530 1531 1531 1531 1532 1532 1533 1534 1535 1535 1536 1535 1536 1536 1536 1536 1536 1536 1537 1537 1537
1466 1466 1467 1468 1470 1471 1472 1473 1475 1476 1479 1481 1483 1485 1486 1489 1491 1494 1495 1496 1496 1497 1498 1499 1501 1502 1503 1505 1506 1507 1508 1509 1511 1512 1513 1514 1516 1517 1518 1519 1520 1521 1523 1524 1525 1526 1527 1528 1528 1529 1529 1529 1530 1530 1531 1532 1532 1533 1533 1533 1533 1533 1533 1533 1534 1534 1535 1535 1535
1465 1466 1466 1467 1469 1470 1471 1473 1475 1477 1479 1481 1482 1484 1486 1489 1491 1492 1493 1494 1496 1496 1497 1498 1499 1501 1502 1503 1504 1506 1506 1508 1509 1510 1511 1513 1514 1516 1517 1518 1519 1520 1521 1522 1523 1524 1525 1526 1527 1527 1527 1527 1528 1528 1529 1530 1530 1530 1531 1531 1531 1531 1531 1531 1531 1532 1532 1532 1533
1464 1465 1466 1466 1468 1470 1471 1473 1475 1476 1478 1480 1482 1484 1486 1488 1490 1491 1492 1494 1494 1495 1496 1497 1498 1500 1501 1502 1503 1504 1505 1506 1507 1509 1510 1511 1512 1514 1515 1516 1517 1518 1519 1520 1521 1522 1523 1525 1525 1525 1525 1525 1526 1526 1527 1528 1528 1528 1528 1529 1529 1529 1529 1529 1529 1530 1530 1530 1530
1463 1464 1465 1466 1467 1469 1471 1473 1475 1476 1477 1479 1481 1483 1485 1487 1488 1490 1491 1492 1493 1494 1495 1496 1497 1499 1500 1501 1502 1503 1504 1505 1506 1507 1509 1510 1511 1512 1514 1515 1516 1517 1518 1519 1520 1521 1522 1523 1523 1523 1523 1523 1524 1524 1525 1526 1526 1526 1526 1526 1526 1526 1526 1526 1527 1527 1527 1527 1528
1463 1464 1464 1465 1466 1469 1471 1472 1474 1476 1477 1479 1481 1482 1484 1486 1487 1488 1489 1491 1491 1493 1494 1495 1496 1497 1499 1500 1501 1501 1502 1504 1505 1506 1507 1508 1509 1511 1512 1513 1514 1515 1516 1517 1518 1519 1520 1521 1521 1521 1521 1521 1521 1522 1522 1523 1524 1524 1524 1524 1524 1524 1524 1524 1524 1525 1525 1525 1525
1462 1463 1464 1465 1466 1468 1470 1472 1474 1475 1477 1478 1480 1481 1483 1484 1486 1487 1488 1489 1490 1491 1492 1493 1494 1496 1497 1498 1499 1500 1501 1502 1503 1504 1505 1506 1508 1509 1510 1511 1512 1514 1514 1515 1516 1517 1518 1518 1519 1519 1519 1519 1519 1519 1520 1521 1521 1521 1521 1521 1521 1521 1521 1522 1522 1522 1522 1522 1522
1462 1463 1464 1465 1466 1467 1469 1471 1473 1474 1476 1477 1479 1480 1482 1483 1484 1486 1486 1487 1488 1489 1491 1491 1493 1494 1495 1496 1498 1498 1499 1500 1501 1502 1503 1504 1506 1507 1508 1510 1511 1511 1512 1513 1514 1515 1515 1516 1516 1516 1516 1516 1516 1517 1517 1518 1518 1519 1519 1519 1519 1519 1519 1519 1519 1519 1519 1519 1520
1461 1462 1464 1465 1465 1467 1469 1471 1472 1474 1475 1476 1478 1479 1480 1481 1482 1484 1485 1486 1487 1488 1489 1490 1491 1492 1494 1495 1496 1497 1497 1498 1499 1500 1501 1502 1504 1505 1506 1507 1508 1509 1510 1511 1512 1512 1513 1513 1513 1513 1514 1514 1514 1514 1515 1515 1516 1516 1516 1516 1516 1516 1516 1516 1516 1517 1517 1516 1516
1460 1461 1463 1464 1465 1466 1468 1470 1471 1473 1474 1475 1477 1478 1479 1480 1481 1482 1483 1485 1486 1486 1488 1489 1490 1491 1492 1493 1494 1495 1496 1496 1497 1499 1500 1501 1501 1503 1504 1505 1506 1507 1508 1509 1509 1510 1510 1510 1511 1511 1511 1511 1512 1512 1512 1512 1512 1513 1513 1513 1514 1514 1514 1514 1514 1514 1514 1514 1514
1459 1461 1462 1463 1465 1466 1467 1469 1470 1471 1473 1474 1475 1476 1478 1478 1479 1481 1482 1483 1484 1485 1486 1487 1489 1490 1490 1491 1492 1493 1494 1495 1496 1497 1498 1499 1500 1501 1502 1503 1504 1505 1506 1506 1507 1507 1507 1507 1508 1508 1508 1509 1509 1509 1509 1510 1510 1510 1510 1511 1511 1511 1511 1511 1512 1512 1511 1511 1511
1458 1460 1461 1462 1464 1465 1466 1467 1469 1470 1471 1472 1474 1475 1476 1477 1478 1479 1481 1482 1482 1484 1485 1486 1487 1488 1489 1490 1491 1491 1492 1493 1494 1495 1496 1497 1498 1499 1500 1501 1501 1502 1503 1504 1504 1505 1505 1505 1505 1505 1506 1506 1506 1506 1506 1507 1507 1507 1507 1508 1508 1509 1509 1509 1509 1509 1509 1509 1508
1457 1458 1459 1461 1462 1463 1465 1466 1467 1468 1469 1471 1472 1473 1475 1476 1477 1478 1479 1480 1481 1482 1483 1484 1485 1486 1487 1488 1489 1490 1491 1491 1492 1493 1494 1495 1496 1496 1497 1498 1499 1500 1501 1501 1501 1501 1502 1502 1502 1503 1503 1504 1504 1504 1504 1504 1504 1505 1505 1505 1506 1506 1506 1507 1507 1507 1507 1506 1506
1455 1456 1458 1459 1460 1461 1462 1464 1465 1466 1467 1469 1470 1471 1473 1474 1475 1476 1477 1478 1479 1480 1481 1482 1483 1484 1485 1486 1487 1488 1489 1490 1490 1491 1492 1492 1493 1494 1495 1496 1496 1497 1498 1498 1499 1499 1499 1499 1500 1500 1501 1501 1501 1502 1502 1502 1502 1502 1502 1503 1503 1504 1504 1504 1505 1505 1504 1503 1503
1453 1454 1455 1456 1458 1459 1460 1461 1462 1464 1465 1466 1468 1469 1471 1472 1473 1474 1475 1476 1477 1478 1479 1480 1481 1482 1483 1483 1484 1486 1486 1487 1488 1489 1489 1490 1491 1491 1492 1493 1494 1494 1495 1496 1496 1496 1496 1497 1497 1498 1498 1499 1499 1500 1500 1500 1500 1500 1500 1501 1501 1501 1502 1502 1502 1502 1501 1501 1501
1449 1450 1451 1453 1455 1456 1457 1458 1460 1461 1462 1464 1466 1467 1469 1470 1471 1472 1473 1473 1474 1476 1476 1477 1478 1479 1480 1481 1482 1483 1484 1485 1485 1486 1486 1487 1488 1489 1489 1490 1491 1491 1492 1493 1493 1494 1494 1494 1495 1496 1496 1497 1497 1498 1498 1498 1498 1498 1498 1498 1499 1499 1499 1499 1499 1499 1499 1499 1499
1445 1446 1448 1449 1451 1452 1454 1455 1457 1458 1460 1461 1463 1465 1466 1468 1469 1470 1470 1471 1471 1472 1473 1474 1476 1476 1477 1478 1479 1480 1481 1481 1482 1483 1484 1484 1485 1486 1487 1488 1488 1489 1490 1490 1491 1491 1491 1492 1493 1493 1494 1494 1495 1495 1496 1496 1496 1496 1495 1496 1496 1496 1497 1497 1497 1497 1497 1496 1496
1443 1444 1445 1446 1448 1449 1451 1452 1454 1455 1457 1459 1461 1462 1464 1465 1466 1467 1467 1468 1468 1469 1470 1471 1472 1474 1475 1475 1476 1477 1478 1479 1479 1480 1481 1482 1483 1484 1484 1485 1486 1486 1487 1487 1488 1488 1489 1490 1491 1491 1491 1491 1492 1493 1493 1494 1494 1493 1493 1493 1493 1494 1494 1494 1494 1495 1495 1494 1494
1441 1443 1444 1445 1446 1448 1449 1451 1452 1453 1455 1456 1458 1460 1461 1461 1462 1464 1465 1465 1466 1466 1468 1469 1470 1471 1472 1473 1474 1475 1475 1476 1477 1478 1479 1480 1481 1481 1482 1482 1483 1484 1484 1485 1485 1486 1487 1487 1488 1488 1488 1489 1489 1490 1490 1491 1491 1491 1490 1491 1491 1491 1492 1492 1492 1492 1492 1492 1492
1440 1441 1443 1444 1446 1447 1448 1450 1451 1452 1454 1455 1456 1457 1458 1458 1459 1460 1461 1462 1463 1464 1465 1466 1467 1468 1469 1470 1471 1472 1473 1474 1474 1475 1476 1477 1478 1479 1479 1480 1480 1481 1481 1482 1482 1483 1484 1485 1485 1486 1486 1486 1486 1487 1487 1488 1488 1488 1488 1488 1489 1489 1490 1490 1490 1489 1489 1489 1489
1438 1439 1441 1443 1445 1446 1447 1449 1450 1451 1452 1453 1454 1455 1455 1456 1456 1457 1458 1460 1461 1462 1463 1464 1465 1466 1466 1468 1469 1470 1471 1471 1472 1472 1473 1474 1475 1476 1476 1476 1477 1478 1479 1480 1480 1481 1481 1481 1482 1483 1483 1483 1484 1484 1485 1485 1485 1486 1486 1486 1486 1487 1487 1487 1487 1486 1486 1486 1485
1436 1438 1440 1441 1443 1444 1446 1447 1448 1449 1450 1451 1451 1452 1453 1454 1455 1456 1456 1458 1459 1459 1461 1461 1462 1463 1464 1465 1466 1467 1468 1468 1469 1469 1470 1471 1472 1473 1473 1474 1474 1475 1476 1477 1477 1478 1478 1478 1479 1480 1480 1481 1481 1481 1482 1482 1483 1483 1484 1484 1484 1484 1484 1484 1484 1484 1483 1482 1482
1434 1436 1438 1440 1441 1442 1444 1445 1446 1447 1448 1448 1449 1450 1451 1452 1453 1454 1455 1456 1456 1457 1458 1459 1460 1461 1462 1462 1463 1464 1465 1466 1466 1466 1467 1468 1469 1470 1470 1471 1471 1472 1473 1474 1474 1475 1475 1475 1476 1476 1477 1478 1478 1479 1479 1480 1480 1481 1481 1481 1481 1481 1482 1482 1481 1481 1480 1479 1479
1432 1434 1436 1437 1439 1440 1441 1442 1443 1444 1445 1446 1447 1448 1449 1450 1451 1452 1453 1454 1455 1456 1456 1457 1458 1459 1460 1460 1461 1461 1461 1462 1463 1463 1464 1465 1466 1467 1468 1469 1469 1470 1471 1471 1471 1471 1471 1472 1473 1474 1475 1476 1477 1477 1477 1477 1478 1478 1478 1478 1479 1479 1479 1479 1478 1477 1476 1476 1476
1431 1432 1433 1435 1436 1438 1439 1440 1441 1441 1442 1443 1445 1446 1447 1448 1450 1451 1451 1452 1453 1454 1455 1456 1456 1457 1457 1457 1458 1458 1459 1459 1460 1461 1461 1462 1463 1464 1465 1465 1466 1466 1467 1468 1468 1468 1468 1469 1470 1471 1473 1475 1475 1475 1475 1475 1475 1476 1476 1476 1476 1476 1476 1475 1474 1474 1473 1473 1472
1429 1430 1431 1432 1434 1436 1436 1437 1438 1439 1440 1441 1442 1444 1445 1446 1448 1449 1450 1451 1451 1452 1453 1454 1455 1455 1455 1456 1456 1455 1456 1456 1457 1459 1460 1460 1461 1462 1463 1463 1463 1464 1464 1464 1465 1465 1465 1466 1466 1467 1468 1470 1471 1472 1472 1472 1472 1472 1472 1472 1472 1472 1472 1471 1471 1471 1470 1470 1469
1427 1427 1428 1430 1431 1433 1434 1435 1436 1437 1438 1439 1440 1441 1443 1444 1446 1447 1447 1448 1449 1450 1451 1452 1452 1453 1453 1453 1453 1453 1453 1454 1455 1456 1456 1457 1458 1459 1460 1460 1461 1461 1461 1461 1462 1462 1463 1463 1464 1464 1465 1465 1466 1468 1469 1470 1470 1470 1469 1469 1469 1469 1469 1469 1468 1468 1468 1467 1467
1425 1425 1426 1427 1428 1430 1431 1433 1434 1435 1436 1437 1438 1440 1441 1442 1443 1444 1445 1446 1447 1448 1449 1449 1450 1451 1451 1451 1451 1451 1451 1452 1452 1453 1453 1454 1455 1456 1456 1457 1458 1458 1458 1459 1459 1460 1460 1461 1461 1462 1462 1463 1464 1466 1466 1467 1467 1467 1467 1466 1466 1466 1466 1466 1466 1466 1465 1465 1465
1423 1423 1423 1424 1425 1426 1428 1430 1431 1433 1434 1436 1437 1438 1439 1440 1441 1442 1443 1443 1444 1445 1446 1447 1448 1448 1448 1448 1448 1449 1449 1450 1450 1450 1451 1451 1452 1452 1453 1454 1455 1455 1456 1456 1457 1458 1458 1459 1459 1460 1461 1462 1463 1464 1464 1464 1464 1464 1463 1462 1462 1462 1462 1463 1463 1463 1463 1463 1462
1421 1422 1422 1421 1422 1423 1425 1426 1428 1431 1433 1435 1436 1436 1437 1438 1439 1439 1440 1441 1442 1443 1443 1444 1445 1446 1446 1446 1446 1447 1447 1447 1448 1448 1448 1449 1449 1450 1451 1451 1452 1453 1454 1455 1456 1456 1457 1458 1458 1459 1460 1461 1461 1461 1461 1461 1461 1460 1460 1460 1460 1460 1460 1461 1461 1461 1460 1460 1460
1420 1420 1421 1420 1420 1421 1422 1424 1426 1429 1431 1433 1434 1435 1435 1436 1436 1437 1438 1439 1440 1441 1442 1442 1443 1443 1443 1444 1444 1444 1445 1445 1446 1446 1446 1446 1447 1448 1448 1449 1450 1451 1451 1452 1454 1455 1456 1457 1458 1458 1459 1459 1459 1459 1458 1458 1458 1458 1457 1457 1458 1458 1458 1458 1458 1458 1458 1458 1457
1417 1418 1419 1419 1419 1419 1420 1421 1423 1426 1428 1430 1431 1433 1433 1434 1435 1436 1437 1438 1439 1440 1440 1440 1441 1441 1441 1442 1442 1442 1442 1442 1443 1443 1444 1444 1445 1446 1446 1447 1447 1448 1449 1450 1451 1453 1455 1456 1457 1457 1457 1457 1457 1457 1456 1456 1456 1456 1455 1456 1456 1456 1456 1456 1456 1456 1455 1455 1455
1415 1416 1417 1418 1418 1418 1418 1419 1421 1423 1425 1427 1429 1430 1431 1432 1433 1434 1435 1436 1437 1437 1438 1438 1439 1439 1440 1441 1441 1441 1441 1440 1441 1441 1442 1442 1443 1443 1444 1445 1445 1446 1446 1448 1450 1451 1453 1454 1455 1456 1456 1456 1455 1455 1455 1454 1454 1454 1453 1454 1454 1454 1454 1454 1454 1453 1453 1453 1453
1413 1414 1415 1416 1417 1417 1418 1418 1419 1420 1422 1424 1425 1427 1429 1430 1431 1432 1433 1434 1435 1436 1436 1437 1437 1438 1438 1439 1440 1440 1439 1438 1439 1439 1440 1440 1441 1441 1442 1442 1443 1443 1444 1446 1448 1450 1451 1452 1453 1454 1454 1454 1453 1453 1452 1452 1452 1451 1451 1451 1451 1451 1451 1452 1452 1451 1451 1451 1451
1411 1412 1413 1414 1416 1417 1417 1417 1417 1418 1419 1421 1422 1424 1426 1427 1429 1430 1431 1433 1434 1435 1435 1436 1436 1436 1437 1438 1438 1438 1437 1437 1437 1437 1437 1438 1439 1439 1440 1441 1441 1441 1442 1444 1446 1448 1449 1450 1451 1451 1451 1451 1451 1450 1450 1450 1450 1449 1449 1449 1449 1449 1449 1450 1450 1450 1450 1450 1450
1410 1411 1411 1413 1414 1415 1416 1417 1416 1416 1417 1418 1419 1421 1423 1425 1426 1428 1430 1431 1432 1433 1433 1434 1434 1435 1435 1436 1436 1437 1437 1436 1436 1436 1436 1436 1437 1438 1439 1439 1439 1440 1441 1443 1445 1446 1447 1448 1449 1449 1449 1448 1448 1448 1447 1447 1447 1447 1447 1447 1447 1447 1448 1448 1448 1448 1448 1448 1448
1408 1409 1410 1411 1412 1413 1415 1415 1415 1415 1416 1416 1417 1419 1421 1422 1424 1426 1428 1429 1430 1431 1431 1432 1433 1433 1434 1434 1435 1436 1436 1436 1435 1434 1434 1435 1436 1437 1438 1438 1438 1439 1441 1443 1444 1445 1446 1446 1446 1446 1446 1446 1446 1446 1446 1446 1445 1445 1445 1445 1446 1446 1446 1447 1446 1446 1446 1446 1446
1406 1407 1408 1409 1410 1411 1412 1414 1414 1414 1414 1415 1416 1418 1419 1421 1422 1424 1425 1427 1428 1429 1430 1431 1431 1432 1432 1433 1434 1434 1435 1434 1433 1433 1434 1435 1435 1436 1437 1437 1439 1440 1441 1442 1443 1443 1443 1444 1444 1444 1444 1444 1444 1444 1444 1444 1444 1444 1444 1444 1445 1445 1445 1445 1445 1445 1445 1445 1444
1404 1405 1406 1406 1407 1409 1410 1411 1412 1413 1414 1415 1416 1417 1418 1419 1420 1422 1423 1425 1426 1426 1427 1429 1430 1431 1431 1431 1432 1432 1431 1431 1431 1432 1433 1434 1435 1436 1437 1438 1439 1440 1440 1440 1440 1440 1441 1441 1441 1441 1442 1442 1442 1442 1442 1442 1442 1443 1443 1443 1443 1443 1443 1443 1443 1443 1443 1443 1443
1401 1402 1403 1404 1405 1407 1408 1410 1411 1412 1413 1413 1415 1416 1417 1418 1419 1420 1421 1422 1423 1425 1426 1427 1428 1429 1429 1429 1429 1429 1429 1430 1431 1431 1433 1434 1435 1436 1436 1437 1437 1436 1436 1436 1437 1437 1438 1438 1439 1439 1439 1440 1440 1441 1441 1441 1441 1441 1441 1442 1442 1442 1441 1441 1441 1441 1441 1441 1441